Time,TemperatureF,DewpointF,PressureIn,WindDirection,WindDirectionDegrees,WindSpeedMPH,WindSpeedGustMPH,Humidity,HourlyPrecipIn,Conditions,Clouds,dailyrainin,SoftwareType,DateUTC
2013-04-12 04:17:00,57.0,55.3,29.57,WNW,282,5.0,5.0,94,0.00,,---,0.14,VWS V14.01,2013-04-12 08:17:00,
2013-04-12 04:18:00,57.0,55.3,29.58,WNW,296,5.0,5.0,94,0.00,,---,0.14,VWS V14.01,2013-04-12 08:18:00,
2013-04-12 04:23:00,57.0,55.6,29.61,NW,317,3.0,5.0,95,0.00,,---,0.14,VWS V14.01,2013-04-12 08:23:00,
2013-04-12 04:28:00,56.7,55.3,29.56,East,88,10.0,13.0,95,0.01,,---,0.15,VWS V14.01,2013-04-12 08:28:00,
2013-04-12 04:33:00,56.4,55.3,29.57,SE,138,8.0,8.0,96,0.03,,---,0.17,VWS V14.01,2013-04-12 08:33:00,
2013-04-12 04:38:00,56.3,55.2,29.57,South,177,0.0,0.0,96,0.04,,---,0.18,VWS V14.01,2013-04-12 08:38:00,
2013-04-12 04:43:00,56.3,55.2,29.57,South,176,0.0,0.0,96,0.05,,---,0.19,VWS V14.01,2013-04-12 08:43:00,
2013-04-12 04:48:00,56.3,55.2,29.57,SW,220,1.0,2.0,96,0.06,,---,0.20,VWS V14.01,2013-04-12 08:48:00,
2013-04-12 04:53:00,56.2,55.4,29.56,South,171,0.0,0.0,97,0.07,,---,0.21,VWS V14.01,2013-04-12 08:53:00,
2013-04-12 04:58:00,56.2,55.4,29.57,NNW,333,2.0,2.0,97,0.08,,---,0.22,VWS V14.01,2013-04-12 08:58:00,
2013-04-12 05:03:00,56.1,55.3,29.55,South,173,7.0,7.0,97,0.09,,---,0.23,VWS V14.01,2013-04-12 09:03:00,
2013-04-12 05:08:00,55.9,55.1,29.56,South,175,1.0,3.0,97,0.11,,---,0.25,VWS V14.01,2013-04-12 09:08:00,
2013-04-12 05:13:00,55.8,55.0,29.57,SSE,167,4.0,5.0,97,0.12,,---,0.26,VWS V14.01,2013-04-12 09:13:00,
2013-04-12 05:18:00,55.7,54.9,29.58,SSE,155,2.0,3.0,97,0.13,,---,0.27,VWS V14.01,2013-04-12 09:18:00,
2013-04-12 05:23:00,55.7,54.9,29.58,SE,136,6.0,6.0,97,0.15,,---,0.29,VWS V14.01,2013-04-12 09:23:00,
2013-04-12 05:28:00,55.8,55.0,29.58,SW,217,1.0,1.0,97,0.15,,---,0.30,VWS V14.01,2013-04-12 09:28:00,
2013-04-12 05:33:00,55.7,54.9,29.58,SE,144,4.0,4.0,97,0.15,,---,0.31,VWS V14.01,2013-04-12 09:33:00,
2013-04-12 05:38:00,55.6,54.8,29.57,SSE,148,6.0,7.0,97,0.15,,---,0.33,VWS V14.01,2013-04-12 09:38:00,
2013-04-12 05:43:00,55.6,54.8,29.58,SE,144,1.0,1.0,97,0.15,,---,0.34,VWS V14.01,2013-04-12 09:43:00,
2013-04-12 05:48:00,55.6,55.0,29.57,SE,144,0.0,0.0,98,0.15,,---,0.35,VWS V14.01,2013-04-12 09:48:00,
2013-04-12 05:53:00,55.6,55.0,29.58,SE,144,0.0,0.0,98,0.16,,---,0.37,VWS V14.01,2013-04-12 09:53:00,
2013-04-12 05:58:00,55.6,55.0,29.58,SE,126,1.0,3.0,98,0.16,,---,0.38,VWS V14.01,2013-04-12 09:58:00,
2013-04-12 06:03:00,55.6,55.0,29.59,SE,128,2.0,5.0,98,0.17,,---,0.40,VWS V14.01,2013-04-12 10:03:00,
2013-04-12 06:08:00,55.5,55.0,29.59,SE,136,5.0,7.0,98,0.16,,---,0.41,VWS V14.01,2013-04-12 10:08:00,
2013-04-12 06:13:00,55.4,54.8,29.58,SE,140,2.0,5.0,98,0.17,,---,0.43,VWS V14.01,2013-04-12 10:13:00,
2013-04-12 06:18:00,55.4,54.8,29.58,ESE,121,0.0,1.0,98,0.17,,---,0.44,VWS V14.01,2013-04-12 10:18:00,
2013-04-12 06:23:00,55.3,54.8,29.58,ESE,121,0.0,0.0,98,0.16,,---,0.45,VWS V14.01,2013-04-12 10:23:00,
2013-04-12 06:28:00,55.4,54.8,29.58,SE,144,2.0,3.0,98,0.17,,---,0.47,VWS V14.01,2013-04-12 10:28:00,
2013-04-12 06:33:00,55.3,54.8,29.57,ESE,114,0.0,3.0,98,0.17,,---,0.48,VWS V14.01,2013-04-12 10:33:00,
2013-04-12 06:38:00,55.1,54.5,29.57,SSW,196,3.0,5.0,98,0.16,,---,0.49,VWS V14.01,2013-04-12 10:38:00,
2013-04-12 06:43:00,55.0,54.5,29.57,SE,135,0.0,2.0,98,0.17,,---,0.51,VWS V14.01,2013-04-12 10:43:00,
2013-04-12 06:48:00,54.9,54.3,29.57,ESE,107,2.0,3.0,98,0.17,,---,0.52,VWS V14.01,2013-04-12 10:48:00,
2013-04-12 06:53:00,54.9,54.3,29.56,SE,136,3.0,3.0,98,0.16,,---,0.53,VWS V14.01,2013-04-12 10:53:00,
2013-04-12 06:58:00,54.8,54.2,29.56,SE,146,5.0,5.0,98,0.17,,---,0.55,VWS V14.01,2013-04-12 10:58:00,
2013-04-12 07:03:00,54.7,54.2,29.56,SE,139,4.0,6.0,98,0.16,,---,0.56,VWS V14.01,2013-04-12 11:03:00,
2013-04-12 07:08:00,54.6,54.0,29.55,SSE,151,3.0,7.0,98,0.16,,---,0.57,VWS V14.01,2013-04-12 11:08:00,
2013-04-12 07:13:00,54.6,54.0,29.55,SE,138,3.0,6.0,98,0.16,,---,0.59,VWS V14.01,2013-04-12 11:13:00,
2013-04-12 07:18:00,54.6,54.0,29.55,SSW,196,4.0,6.0,98,0.16,,---,0.60,VWS V14.01,2013-04-12 11:18:00,
2013-04-12 07:23:00,54.6,54.0,29.56,SSW,205,3.0,5.0,98,0.17,,---,0.62,VWS V14.01,2013-04-12 11:23:00,
2013-04-12 07:28:00,54.6,54.0,29.55,SSE,153,7.0,8.0,98,0.16,,---,0.63,VWS V14.01,2013-04-12 11:28:00,
2013-04-12 07:33:00,54.6,54.3,29.56,SE,132,4.0,5.0,99,0.17,,---,0.65,VWS V14.01,2013-04-12 11:33:00,
2013-04-12 07:38:00,54.5,54.2,29.56,South,176,4.0,8.0,99,0.17,,---,0.66,VWS V14.01,2013-04-12 11:38:00,
2013-04-12 07:43:00,54.4,54.1,29.55,SE,138,8.0,8.0,99,0.17,,---,0.67,VWS V14.01,2013-04-12 11:43:00,
2013-04-12 07:48:00,54.4,54.1,29.56,East,92,3.0,3.0,99,0.17,,---,0.69,VWS V14.01,2013-04-12 11:48:00,
2013-04-12 07:53:00,54.4,54.1,29.56,SE,139,6.0,6.0,99,0.17,,---,0.70,VWS V14.01,2013-04-12 11:53:00,
2013-04-12 07:58:00,54.3,54.0,29.56,SE,142,5.0,5.0,99,0.17,,---,0.72,VWS V14.01,2013-04-12 11:58:00,
2013-04-12 08:03:00,54.3,54.0,29.56,South,173,1.0,4.0,99,0.17,,---,0.73,VWS V14.01,2013-04-12 12:03:00,
2013-04-12 08:08:00,54.3,54.0,29.56,SE,133,1.0,1.0,99,0.18,,---,0.75,VWS V14.01,2013-04-12 12:08:00,
2013-04-12 08:13:00,54.3,54.0,29.57,South,190,0.0,2.0,99,0.18,,---,0.77,VWS V14.01,2013-04-12 12:13:00,
2013-04-12 08:18:00,54.4,54.1,29.57,South,169,3.0,6.0,99,0.18,,---,0.78,VWS V14.01,2013-04-12 12:18:00,
2013-04-12 08:23:00,54.4,54.1,29.57,SSE,155,3.0,5.0,99,0.18,,---,0.80,VWS V14.01,2013-04-12 12:23:00,
2013-04-12 08:28:00,54.3,54.0,29.57,SE,141,2.0,5.0,99,0.19,,---,0.82,VWS V14.01,2013-04-12 12:28:00,
2013-04-12 08:33:00,54.3,54.0,29.57,South,175,4.0,5.0,99,0.19,,---,0.83,VWS V14.01,2013-04-12 12:33:00,
2013-04-12 08:38:00,54.3,54.0,29.57,SE,136,1.0,4.0,99,0.19,,---,0.85,VWS V14.01,2013-04-12 12:38:00,
2013-04-12 08:43:00,54.4,54.1,29.57,SSE,163,2.0,2.0,99,0.19,,---,0.86,VWS V14.01,2013-04-12 12:43:00,
2013-04-12 08:48:00,54.4,54.1,29.57,South,173,4.0,5.0,99,0.19,,---,0.88,VWS V14.01,2013-04-12 12:48:00,
2013-04-12 08:53:00,54.4,54.1,29.57,SSE,166,0.0,0.0,99,0.19,,---,0.89,VWS V14.01,2013-04-12 12:53:00,
2013-04-12 08:58:00,54.4,54.1,29.57,SSE,166,0.0,1.0,99,0.20,,---,0.91,VWS V14.01,2013-04-12 12:58:00,
2013-04-12 09:03:00,54.4,54.1,29.57,SSE,161,3.0,4.0,99,0.19,,---,0.92,VWS V14.01,2013-04-12 13:03:00,
2013-04-12 09:08:00,54.4,54.1,29.58,South,186,2.0,3.0,99,0.19,,---,0.94,VWS V14.01,2013-04-12 13:08:00,
2013-04-12 09:13:00,54.5,54.2,29.57,SE,145,6.0,6.0,99,0.19,,---,0.95,VWS V14.01,2013-04-12 13:13:00,
2013-04-12 09:18:00,54.3,54.0,29.58,East,101,1.0,1.0,99,0.19,,---,0.97,VWS V14.01,2013-04-12 13:18:00,
2013-04-12 09:23:00,54.2,53.9,29.58,East,101,1.0,3.0,99,0.18,,---,0.98,VWS V14.01,2013-04-12 13:23:00,
2013-04-12 09:28:00,54.5,54.2,29.58,East,101,0.0,0.0,99,0.19,,---,1.00,VWS V14.01,2013-04-12 13:28:00,
2013-04-12 09:33:00,54.8,54.5,29.58,ENE,61,2.0,2.0,99,0.18,,---,1.01,VWS V14.01,2013-04-12 13:33:00,
2013-04-12 09:38:00,55.0,54.7,29.58,NE,46,0.0,0.0,99,0.18,,---,1.02,VWS V14.01,2013-04-12 13:38:00,
2013-04-12 09:43:00,55.0,54.7,29.58,ESE,117,3.0,4.0,99,0.17,,---,1.03,VWS V14.01,2013-04-12 13:43:00,
2013-04-12 09:48:00,55.2,54.9,29.58,ESE,117,0.0,1.0,99,0.17,,---,1.05,VWS V14.01,2013-04-12 13:48:00,
2013-04-12 09:53:00,55.3,55.0,29.58,ESE,115,3.0,3.0,99,0.17,,---,1.06,VWS V14.01,2013-04-12 13:53:00,
2013-04-12 09:58:00,55.3,55.0,29.58,SSE,153,4.0,4.0,99,0.16,,---,1.07,VWS V14.01,2013-04-12 13:58:00,
2013-04-12 10:03:00,55.1,54.8,29.58,SSW,193,0.0,3.0,99,0.16,,---,1.08,VWS V14.01,2013-04-12 14:03:00,
2013-04-12 10:08:00,55.3,55.0,29.58,SSE,160,0.0,5.0,99,0.16,,---,1.09,VWS V14.01,2013-04-12 14:08:00,
2013-04-12 10:13:00,55.3,55.0,29.58,SSE,167,3.0,4.0,99,0.15,,---,1.10,VWS V14.01,2013-04-12 14:13:00,
2013-04-12 10:18:00,55.5,55.2,29.57,SSE,166,2.0,3.0,99,0.14,,---,1.11,VWS V14.01,2013-04-12 14:18:00,
2013-04-12 10:23:00,55.8,55.5,29.57,South,169,3.0,5.0,99,0.14,,---,1.12,VWS V14.01,2013-04-12 14:23:00,
2013-04-12 10:28:00,55.9,55.6,29.57,South,185,0.0,3.0,99,0.13,,---,1.13,VWS V14.01,2013-04-12 14:28:00,
2013-04-12 10:33:00,56.1,55.8,29.58,SE,146,1.0,3.0,99,0.13,,---,1.14,VWS V14.01,2013-04-12 14:33:00,
2013-04-12 10:38:00,56.1,55.8,29.57,SSE,165,4.0,5.0,99,0.13,,---,1.15,VWS V14.01,2013-04-12 14:38:00,
2013-04-12 10:43:00,56.4,56.1,29.57,SE,125,1.0,2.0,99,0.13,,---,1.16,VWS V14.01,2013-04-12 14:43:00,
2013-04-12 10:48:00,56.6,56.3,29.58,SSW,212,0.0,0.0,99,0.12,,---,1.17,VWS V14.01,2013-04-12 14:48:00,
2013-04-12 10:53:00,56.9,56.6,29.58,SSW,200,1.0,2.0,99,0.12,,---,1.18,VWS V14.01,2013-04-12 14:53:00,
2013-04-12 10:58:00,57.0,56.7,29.58,SSW,197,0.0,1.0,99,0.12,,---,1.19,VWS V14.01,2013-04-12 14:58:00,
2013-04-12 11:03:00,56.9,56.6,29.58,SE,125,3.0,5.0,99,0.12,,---,1.20,VWS V14.01,2013-04-12 15:03:00,
2013-04-12 11:08:00,56.7,56.4,29.58,SE,132,2.0,2.0,99,0.12,,---,1.21,VWS V14.01,2013-04-12 15:08:00,
2013-04-12 11:13:00,56.6,56.3,29.58,SE,143,3.0,7.0,99,0.11,,---,1.21,VWS V14.01,2013-04-12 15:13:00,
2013-04-12 11:18:00,56.5,56.2,29.58,North,10,0.0,1.0,99,0.11,,---,1.22,VWS V14.01,2013-04-12 15:18:00,
2013-04-12 11:23:00,56.3,56.0,29.58,SSW,195,0.0,5.0,99,0.11,,---,1.23,VWS V14.01,2013-04-12 15:23:00,
2013-04-12 11:28:00,56.0,55.7,29.59,SSE,158,1.0,4.0,99,0.10,,---,1.23,VWS V14.01,2013-04-12 15:28:00,
2013-04-12 11:33:00,56.5,56.2,29.58,SE,132,4.0,5.0,99,0.10,,---,1.24,VWS V14.01,2013-04-12 15:33:00,
2013-04-12 11:38:00,57.6,57.3,29.58,SSE,153,8.0,8.0,99,0.10,,---,1.25,VWS V14.01,2013-04-12 15:38:00,
2013-04-12 11:43:00,58.0,57.7,29.58,South,188,6.0,9.0,99,0.09,,---,1.25,VWS V14.01,2013-04-12 15:43:00,
2013-04-12 11:48:00,58.1,57.8,29.58,SSE,168,3.0,7.0,99,0.09,,---,1.26,VWS V14.01,2013-04-12 15:48:00,
2013-04-12 11:53:00,58.2,57.9,29.58,SE,127,5.0,5.0,99,0.08,,---,1.26,VWS V14.01,2013-04-12 15:53:00,
2013-04-12 11:58:00,58.8,58.5,29.57,SE,127,5.0,10.0,99,0.08,,---,1.27,VWS V14.01,2013-04-12 15:58:00,
2013-04-12 12:03:00,59.1,58.8,29.57,SSE,148,5.0,10.0,99,0.07,,---,1.27,VWS V14.01,2013-04-12 16:03:00,
2013-04-12 12:08:00,59.7,59.1,29.57,SSE,161,4.0,5.0,98,0.08,,---,1.28,VWS V14.01,2013-04-12 16:08:00,
2013-04-12 12:13:00,60.3,59.7,29.57,South,177,7.0,8.0,98,0.07,,---,1.28,VWS V14.01,2013-04-12 16:13:00,
2013-04-12 12:18:00,60.7,59.6,29.57,SE,124,7.0,8.0,96,0.06,,---,1.28,VWS V14.01,2013-04-12 16:18:00,
2013-04-12 12:23:00,60.8,59.4,29.57,SSE,148,9.0,10.0,95,0.06,,---,1.29,VWS V14.01,2013-04-12 16:23:00,
2013-04-12 12:28:00,60.7,59.0,29.57,SSE,158,7.0,8.0,94,0.06,,---,1.29,VWS V14.01,2013-04-12 16:28:00,
2013-04-12 12:33:00,60.6,58.9,29.57,South,184,9.0,13.0,94,0.05,,---,1.29,VWS V14.01,2013-04-12 16:33:00,
2013-04-12 12:38:00,61.0,59.3,29.57,South,178,8.0,11.0,94,0.05,,---,1.30,VWS V14.01,2013-04-12 16:38:00,
2013-04-12 12:43:00,61.3,59.0,29.57,SSE,158,3.0,8.0,92,0.05,,---,1.30,VWS V14.01,2013-04-12 16:43:00,
2013-04-12 12:48:00,61.8,59.8,29.57,South,173,5.0,8.0,93,0.05,,---,1.31,VWS V14.01,2013-04-12 16:48:00,
2013-04-12 12:53:00,62.0,59.3,29.57,SE,135,6.0,11.0,91,0.05,,---,1.31,VWS V14.01,2013-04-12 16:53:00,
2013-04-12 12:58:00,62.2,59.5,29.56,SE,133,6.0,6.0,91,0.05,,---,1.32,VWS V14.01,2013-04-12 16:58:00,
2013-04-12 13:03:00,62.6,59.3,29.56,SSE,155,10.0,11.0,89,0.06,,---,1.33,VWS V14.01,2013-04-12 17:03:00,
2013-04-12 13:08:00,62.5,59.5,29.56,SE,134,9.0,10.0,90,0.05,,---,1.33,VWS V14.01,2013-04-12 17:08:00,
2013-04-12 13:13:00,62.7,58.5,29.56,SE,141,4.0,11.0,86,0.05,,---,1.33,VWS V14.01,2013-04-12 17:13:00,
2013-04-12 13:18:00,63.6,60.0,29.56,SSE,163,4.0,4.0,88,0.06,,---,1.34,VWS V14.01,2013-04-12 17:18:00,
2013-04-12 13:23:00,64.5,59.9,29.56,ESE,103,0.0,2.0,85,0.05,,---,1.34,VWS V14.01,2013-04-12 17:23:00,
2013-04-12 13:28:00,66.0,61.7,29.57,NW,322,5.0,10.0,86,0.06,,---,1.35,VWS V14.01,2013-04-12 17:28:00,
2013-04-12 13:33:00,67.5,60.0,29.57,WNW,287,12.0,13.0,77,0.06,,---,1.35,VWS V14.01,2013-04-12 17:33:00,
2013-04-12 13:38:00,68.1,56.7,29.56,NNW,332,12.0,17.0,67,0.06,,---,1.36,VWS V14.01,2013-04-12 17:38:00,
2013-04-12 13:43:00,68.4,57.0,29.57,West,266,6.0,17.0,67,0.06,,---,1.36,VWS V14.01,2013-04-12 17:43:00,
2013-04-12 13:48:00,68.8,56.6,29.57,WSW,243,4.0,12.0,65,0.06,,---,1.37,VWS V14.01,2013-04-12 17:48:00,
2013-04-12 13:54:00,68.8,57.0,29.57,NW,305,5.0,5.0,66,0.06,,---,1.37,VWS V14.01,2013-04-12 17:54:00,
2013-04-12 13:59:00,68.9,55.4,29.57,WNW,292,19.0,19.0,62,0.05,,---,1.37,VWS V14.01,2013-04-12 17:59:00,
2013-04-12 14:05:00,68.8,55.3,29.56,WNW,297,10.0,17.0,62,0.05,,---,1.38,VWS V14.01,2013-04-12 18:05:00,
2013-04-12 14:10:00,68.4,54.9,29.56,West,275,11.0,14.0,62,0.05,,---,1.38,VWS V14.01,2013-04-12 18:10:00,
2013-04-12 14:15:00,68.2,53.8,29.56,West,259,8.0,18.0,60,0.05,,---,1.38,VWS V14.01,2013-04-12 18:15:00,
2013-04-12 14:20:00,68.5,55.4,29.56,NW,316,3.0,8.0,63,0.05,,---,1.39,VWS V14.01,2013-04-12 18:20:00,
2013-04-12 14:26:00,68.8,56.6,29.56,West,281,9.0,12.0,65,0.04,,---,1.39,VWS V14.01,2013-04-12 18:26:00,
2013-04-12 15:26:00,68.5,50.7,29.57,NW,314,4.0,8.0,53,0.04,,---,1.43,VWS V14.01,2013-04-12 19:26:00,
2013-04-12 15:31:00,68.2,51.9,29.58,WSW,240,7.0,10.0,56,0.04,,---,1.43,VWS V14.01,2013-04-12 19:31:00,
2013-04-12 15:36:00,68.4,52.6,29.57,SSW,212,4.0,10.0,57,0.03,,---,1.43,VWS V14.01,2013-04-12 19:36:00,
2013-04-12 15:41:00,68.2,51.4,29.57,WNW,299,6.0,8.0,55,0.03,,---,1.43,VWS V14.01,2013-04-12 19:41:00,
2013-04-12 15:46:00,68.0,50.8,29.57,WNW,291,8.0,13.0,54,0.03,,---,1.43,VWS V14.01,2013-04-12 19:46:00,
2013-04-12 15:51:00,68.1,50.8,29.57,West,281,9.0,17.0,54,0.02,,---,1.43,VWS V14.01,2013-04-12 19:51:00,
2013-04-12 15:56:00,67.6,48.8,29.58,WNW,299,8.0,18.0,51,0.01,,---,1.43,VWS V14.01,2013-04-12 19:56:00,
2013-04-12 16:01:00,67.3,48.6,29.58,WNW,288,8.0,13.0,51,0.01,,---,1.43,VWS V14.01,2013-04-12 20:01:00,
2013-04-12 16:06:00,67.6,49.4,29.58,West,280,6.0,8.0,52,0.00,,---,1.43,VWS V14.01,2013-04-12 20:06:00,
2013-04-12 16:11:00,68.0,49.7,29.58,NW,319,4.0,7.0,52,0.00,,---,1.43,VWS V14.01,2013-04-12 20:11:00,
2013-04-12 16:16:00,68.4,49.6,29.57,West,275,9.0,12.0,51,0.00,,---,1.43,VWS V14.01,2013-04-12 20:16:00,
2013-04-12 16:21:00,68.7,48.2,29.58,West,270,8.0,8.0,48,0.00,,---,1.43,VWS V14.01,2013-04-12 20:21:00,
2013-04-12 16:26:00,68.5,48.1,29.57,West,261,5.0,18.0,48,0.00,,---,1.43,VWS V14.01,2013-04-12 20:26:00,
2013-04-12 16:31:00,68.4,47.4,29.57,NNW,337,10.0,12.0,47,0.00,,---,1.43,VWS V14.01,2013-04-12 20:31:00,
2013-04-12 16:37:00,68.4,47.4,29.57,West,276,7.0,12.0,47,0.00,,---,1.43,VWS V14.01,2013-04-12 20:37:00,
2013-04-12 16:42:00,67.8,46.9,29.57,NW,304,2.0,6.0,47,0.00,,---,1.43,VWS V14.01,2013-04-12 20:42:00,
2013-04-12 16:47:00,67.6,46.7,29.57,WNW,285,5.0,10.0,47,0.00,,---,1.43,VWS V14.01,2013-04-12 20:47:00,
2013-04-12 16:52:00,68.0,48.7,29.58,NW,311,5.0,6.0,50,0.00,,---,1.43,VWS V14.01,2013-04-12 20:52:00,
2013-04-12 16:57:00,68.2,48.3,29.58,WNW,292,9.0,9.0,49,0.00,,---,1.43,VWS V14.01,2013-04-12 20:57:00,
2013-04-12 17:02:00,68.0,45.9,29.58,WSW,252,10.0,12.0,45,0.00,,---,1.43,VWS V14.01,2013-04-12 21:02:00,
2013-04-12 17:07:00,67.5,46.6,29.58,NW,309,4.0,9.0,47,0.00,,---,1.43,VWS V14.01,2013-04-12 21:07:00,
2013-04-12 17:12:00,67.5,45.4,29.58,WNW,303,5.0,7.0,45,0.00,,---,1.43,VWS V14.01,2013-04-12 21:12:00,
2013-04-12 17:17:00,67.8,46.3,29.58,WNW,298,10.0,13.0,46,0.00,,---,1.43,VWS V14.01,2013-04-12 21:17:00,
2013-04-12 17:22:00,67.9,45.2,29.58,WNW,288,11.0,14.0,44,0.00,,---,1.43,VWS V14.01,2013-04-12 21:22:00,
2013-04-12 17:27:00,67.9,44.6,29.59,WNW,288,6.0,10.0,43,0.00,,---,1.43,VWS V14.01,2013-04-12 21:27:00,
2013-04-12 17:32:00,67.9,44.0,29.59,WNW,286,10.0,13.0,42,0.00,,---,1.43,VWS V14.01,2013-04-12 21:32:00,
2013-04-12 17:37:00,67.8,43.9,29.59,SW,223,6.0,7.0,42,0.00,,---,1.43,VWS V14.01,2013-04-12 21:37:00,
2013-04-12 17:42:00,67.8,42.6,29.59,NW,306,8.0,13.0,40,0.00,,---,1.43,VWS V14.01,2013-04-12 21:42:00,
2013-04-12 17:47:00,67.6,43.1,29.59,West,276,6.0,7.0,41,0.00,,---,1.43,VWS V14.01,2013-04-12 21:47:00,
2013-04-12 17:52:00,67.6,43.7,29.59,NW,305,4.0,8.0,42,0.00,,---,1.43,VWS V14.01,2013-04-12 21:52:00,
2013-04-12 17:57:00,67.6,41.8,29.59,WNW,296,6.0,7.0,39,0.00,,---,1.43,VWS V14.01,2013-04-12 21:57:00,
2013-04-12 18:02:00,67.6,43.7,29.60,NW,312,6.0,19.0,42,0.00,,---,1.43,VWS V14.01,2013-04-12 22:02:00,
2013-04-12 18:07:00,67.4,41.6,29.60,WSW,238,5.0,10.0,39,0.00,,---,1.43,VWS V14.01,2013-04-12 22:07:00,
2013-04-12 18:12:00,67.0,41.2,29.60,West,260,6.0,11.0,39,0.00,,---,1.43,VWS V14.01,2013-04-12 22:12:00,
2013-04-12 18:17:00,66.4,40.7,29.61,West,260,7.0,15.0,39,0.00,,---,1.43,VWS V14.01,2013-04-12 22:17:00,
2013-04-12 18:22:00,65.7,42.0,29.61,West,269,10.0,10.0,42,0.00,,---,1.43,VWS V14.01,2013-04-12 22:22:00,
2013-04-12 18:27:00,65.4,41.7,29.61,NW,307,10.0,12.0,42,0.00,,---,1.43,VWS V14.01,2013-04-12 22:27:00,
2013-04-12 18:32:00,65.0,42.6,29.61,West,279,6.0,7.0,44,0.00,,---,1.43,VWS V14.01,2013-04-12 22:32:00,
2013-04-12 18:37:00,65.1,42.7,29.61,NW,318,3.0,11.0,44,0.00,,---,1.43,VWS V14.01,2013-04-12 22:37:00,
2013-04-12 18:42:00,65.2,42.8,29.61,NW,306,9.0,10.0,44,0.00,,---,1.43,VWS V14.01,2013-04-12 22:42:00,
2013-04-12 18:47:00,65.0,42.6,29.61,WNW,292,8.0,13.0,44,0.00,,---,1.43,VWS V14.01,2013-04-12 22:47:00,
2013-04-12 18:52:00,64.9,44.2,29.62,NW,320,4.0,9.0,47,0.00,,---,1.43,VWS V14.01,2013-04-12 22:52:00,
2013-04-12 18:57:00,64.7,44.0,29.62,WNW,301,9.0,9.0,47,0.00,,---,1.43,VWS V14.01,2013-04-12 22:57:00,
2013-04-12 19:02:00,64.3,42.5,29.62,West,269,7.0,8.0,45,0.00,,---,1.43,VWS V14.01,2013-04-12 23:02:00,
2013-04-12 19:07:00,63.8,42.1,29.63,West,271,5.0,9.0,45,0.00,,---,1.43,VWS V14.01,2013-04-12 23:07:00,
2013-04-12 19:12:00,63.5,43.5,29.63,WNW,296,7.0,7.0,48,0.00,,---,1.43,VWS V14.01,2013-04-12 23:12:00,
2013-04-12 19:17:00,63.1,41.4,29.63,West,279,7.0,11.0,45,0.00,,---,1.43,VWS V14.01,2013-04-12 23:17:00,
2013-04-12 19:22:00,62.8,41.7,29.64,West,264,9.0,15.0,46,0.00,,---,1.43,VWS V14.01,2013-04-12 23:22:00,
2013-04-12 19:27:00,62.4,41.4,29.64,WNW,292,7.0,11.0,46,0.00,,---,1.43,VWS V14.01,2013-04-12 23:27:00,
2013-04-12 19:32:00,62.0,40.4,29.64,WNW,302,11.0,12.0,45,0.00,,---,1.43,VWS V14.01,2013-04-12 23:32:00,
2013-04-12 19:37:00,61.6,40.1,29.65,NW,317,5.0,9.0,45,0.00,,---,1.43,VWS V14.01,2013-04-12 23:37:00,
2013-04-12 19:42:00,61.1,40.2,29.65,WSW,256,9.0,12.0,46,0.00,,---,1.43,VWS V14.01,2013-04-12 23:42:00,
2013-04-12 19:47:00,60.7,39.8,29.66,SSW,213,4.0,10.0,46,0.00,,---,1.43,VWS V14.01,2013-04-12 23:47:00,
2013-04-12 19:52:00,60.4,39.5,29.66,WNW,296,7.0,8.0,46,0.00,,---,1.43,VWS V14.01,2013-04-12 23:52:00,
2013-04-12 19:57:00,60.3,39.5,29.66,WNW,286,3.0,7.0,46,0.00,,---,1.43,VWS V14.01,2013-04-12 23:57:00,
2013-04-12 20:02:00,60.0,39.7,29.66,WNW,285,5.0,8.0,47,0.00,,---,1.43,VWS V14.01,2013-04-13 00:02:00,
2013-04-12 20:07:00,59.8,39.5,29.66,WNW,285,2.0,5.0,47,0.00,,---,1.43,VWS V14.01,2013-04-13 00:07:00,
2013-04-12 20:12:00,59.6,39.9,29.67,West,278,4.0,6.0,48,0.00,,---,1.43,VWS V14.01,2013-04-13 00:12:00,
2013-04-12 20:17:00,59.3,40.2,29.67,WNW,286,5.0,5.0,49,0.00,,---,1.43,VWS V14.01,2013-04-13 00:17:00,
2013-04-12 20:22:00,59.1,40.5,29.67,West,279,3.0,7.0,50,0.00,,---,1.43,VWS V14.01,2013-04-13 00:22:00,
2013-04-12 20:27:00,58.8,39.7,29.67,WSW,240,10.0,14.0,49,0.00,,---,1.43,VWS V14.01,2013-04-13 00:27:00,
2013-04-12 20:32:00,58.7,39.1,29.68,WNW,293,7.0,13.0,48,0.00,,---,1.43,VWS V14.01,2013-04-13 00:32:00,
2013-04-12 20:37:00,58.5,39.4,29.68,NW,311,5.0,8.0,49,0.00,,---,1.43,VWS V14.01,2013-04-13 00:37:00,
2013-04-12 20:42:00,58.2,39.2,29.68,NW,311,7.0,9.0,49,0.00,,---,1.43,VWS V14.01,2013-04-13 00:42:00,
2013-04-12 20:47:00,57.9,39.9,29.69,WNW,298,5.0,10.0,51,0.00,,---,1.43,VWS V14.01,2013-04-13 00:47:00,
2013-04-12 20:52:00,57.1,40.6,29.69,NW,306,8.0,9.0,54,0.00,,---,1.43,VWS V14.01,2013-04-13 00:52:00,
2013-04-12 20:57:00,56.3,40.4,29.70,NNW,347,6.0,11.0,55,0.00,,---,1.43,VWS V14.01,2013-04-13 00:57:00,
2013-04-12 21:02:00,55.7,40.7,29.71,WNW,294,5.0,11.0,57,0.00,,---,1.43,VWS V14.01,2013-04-13 01:02:00,
2013-04-12 21:07:00,54.4,41.7,29.72,NNW,344,12.0,14.0,62,0.00,,---,1.43,VWS V14.01,2013-04-13 01:07:00,
2013-04-12 21:12:00,53.3,41.8,29.73,NNW,347,17.0,17.0,65,0.00,,---,1.43,VWS V14.01,2013-04-13 01:12:00,
2013-04-12 21:17:00,52.3,41.7,29.74,NW,323,11.0,15.0,67,0.00,,---,1.43,VWS V14.01,2013-04-13 01:17:00,
2013-04-12 21:22:00,51.5,41.3,29.74,WNW,297,12.0,17.0,68,0.00,,---,1.43,VWS V14.01,2013-04-13 01:22:00,
2013-04-12 21:27:00,51.0,41.2,29.75,NNE,15,10.0,13.0,69,0.00,,---,1.43,VWS V14.01,2013-04-13 01:27:00,
2013-04-12 21:32:00,50.6,40.8,29.75,NW,309,5.0,9.0,69,0.00,,---,1.43,VWS V14.01,2013-04-13 01:32:00,
2013-04-12 21:37:00,50.2,40.8,29.76,NNW,348,8.0,9.0,70,0.00,,---,1.43,VWS V14.01,2013-04-13 01:37:00,
2013-04-12 21:42:00,49.9,40.2,29.76,NNW,329,8.0,11.0,69,0.00,,---,1.43,VWS V14.01,2013-04-13 01:42:00,
2013-04-12 21:47:00,49.6,39.9,29.76,NW,324,7.0,12.0,69,0.00,,---,1.43,VWS V14.01,2013-04-13 01:47:00,
2013-04-12 21:52:00,49.5,40.1,29.77,NW,319,5.0,8.0,70,0.00,,---,1.43,VWS V14.01,2013-04-13 01:52:00,
2013-04-12 21:57:00,49.3,39.9,29.77,NW,325,5.0,7.0,70,0.00,,---,1.43,VWS V14.01,2013-04-13 01:57:00,
2013-04-12 22:02:00,49.1,39.8,29.77,WNW,285,9.0,12.0,70,0.00,,---,1.43,VWS V14.01,2013-04-13 02:02:00,
2013-04-12 22:07:00,49.0,39.3,29.78,NW,323,4.0,9.0,69,0.00,,---,1.43,VWS V14.01,2013-04-13 02:07:00,
2013-04-12 22:12:00,48.8,39.1,29.78,NNW,330,2.0,9.0,69,0.00,,---,1.43,VWS V14.01,2013-04-13 02:12:00,
2013-04-12 22:17:00,48.5,39.2,29.78,North,360,7.0,7.0,70,0.00,,---,1.43,VWS V14.01,2013-04-13 02:17:00,
2013-04-12 22:22:00,48.2,38.9,29.79,NW,312,1.0,12.0,70,0.00,,---,1.43,VWS V14.01,2013-04-13 02:22:00,
2013-04-12 22:27:00,48.0,38.7,29.78,NNW,345,11.0,11.0,70,0.00,,---,1.43,VWS V14.01,2013-04-13 02:27:00,
2013-04-12 22:32:00,47.8,38.9,29.78,NNW,327,5.0,8.0,71,0.00,,---,1.43,VWS V14.01,2013-04-13 02:32:00,
2013-04-12 22:37:00,47.6,38.7,29.78,WNW,284,3.0,8.0,71,0.00,,---,1.43,VWS V14.01,2013-04-13 02:37:00,
2013-04-12 22:42:00,47.4,38.8,29.78,WNW,294,3.0,5.0,72,0.00,,---,1.43,VWS V14.01,2013-04-13 02:42:00,
2013-04-12 22:47:00,47.3,38.7,29.78,NW,322,6.0,7.0,72,0.00,,---,1.43,VWS V14.01,2013-04-13 02:47:00,
2013-04-12 22:52:00,47.2,38.7,29.78,NW,310,4.0,5.0,72,0.00,,---,1.43,VWS V14.01,2013-04-13 02:52:00,
2013-04-12 22:57:00,47.0,38.8,29.78,WNW,300,3.0,5.0,73,0.00,,---,1.43,VWS V14.01,2013-04-13 02:57:00,
2013-04-12 23:02:00,47.0,38.5,29.78,NW,319,3.0,5.0,72,0.00,,---,1.43,VWS V14.01,2013-04-13 03:02:00,
2013-04-12 23:07:00,46.9,38.7,29.79,NW,315,5.0,8.0,73,0.00,,---,1.43,VWS V14.01,2013-04-13 03:07:00,
2013-04-12 23:12:00,46.9,38.4,29.79,WNW,294,3.0,4.0,72,0.00,,---,1.43,VWS V14.01,2013-04-13 03:12:00,
2013-04-12 23:17:00,46.8,38.3,29.79,NNW,338,2.0,3.0,72,0.00,,---,1.43,VWS V14.01,2013-04-13 03:17:00,
2013-04-12 23:22:00,46.8,38.3,29.79,NNW,327,4.0,4.0,72,0.00,,---,1.43,VWS V14.01,2013-04-13 03:22:00,
2013-04-12 23:27:00,46.9,38.4,29.79,NW,321,1.0,4.0,72,0.00,,---,1.43,VWS V14.01,2013-04-13 03:27:00,
2013-04-12 23:32:00,46.9,38.4,29.79,NNW,346,5.0,6.0,72,0.00,,---,1.43,VWS V14.01,2013-04-13 03:32:00,
2013-04-12 23:37:00,46.9,38.4,29.79,WNW,290,2.0,4.0,72,0.00,,---,1.43,VWS V14.01,2013-04-13 03:37:00,
2013-04-12 23:42:00,46.8,37.9,29.79,NNW,327,1.0,3.0,71,0.00,,---,1.43,VWS V14.01,2013-04-13 03:42:00,
2013-04-12 23:47:00,46.8,38.3,29.79,NNW,327,1.0,3.0,72,0.00,,---,1.43,VWS V14.01,2013-04-13 03:47:00,
2013-04-12 23:52:00,46.7,37.8,29.80,NNW,327,0.0,2.0,71,0.00,,---,1.43,VWS V14.01,2013-04-13 03:52:00,
2013-04-12 23:57:00,46.7,38.2,29.80,NNW,327,2.0,3.0,72,0.00,,---,1.43,VWS V14.01,2013-04-13 03:57:00,